When you browse on this site, cookies collect data to enhance your experience and personalize the content and advertising you see.
Visit our Privacy Policy to learn more. By continuing to use the site, you agree to this use of cookies and data.
  • In Hungary
  • List of Countries
  • For 7 days
  • Water Temperature
  • Satellite Maps
  • Weather Map
  • News
  • Weather Widgets
  • user-avatar
    Login

    Hourly Weather Kayancha

    Today, 17 December, Monday

    Time Temperature Precipitation Wind Pressure Humidity
    00:00 -3°C° 0 mm 2 mps 707 mmHg 93%
    01:00 -3°C° 0.3 mm 2 mps 706 mmHg 93%
    02:00 -3°C° 0.3 mm 2 mps 706 mmHg 93%
    03:00 -3°C° 0.3 mm 2 mps 706 mmHg 93%
    04:00 -3°C° 0.1 mm 2 mps 706 mmHg 92%
    05:00 -4°C° 0.1 mm 2 mps 706 mmHg 92%
    06:00 -4°C° 0 mm 2 mps 706 mmHg 92%
    07:00 -4°C° 0.1 mm 2 mps 706 mmHg 92%
    08:00 -4°C° 0.1 mm 2 mps 705 mmHg 91%
    09:00 -4°C° 0.1 mm 2 mps 705 mmHg 91%
    10:00 -3°C° 0.1 mm 2 mps 705 mmHg 90%
    11:00 -2°C° 0.1 mm 2 mps 705 mmHg 88%
    12:00 -1°C° 0.1 mm 2 mps 705 mmHg 86%
    13:00 -1°C° 0.1 mm 2 mps 706 mmHg 87%
    14:00 -2°C° 0.1 mm 2 mps 706 mmHg 87%
    15:00 0°C° 0.1 mm 1 mps 706 mmHg 88%
    16:00 -1°C° 0.2 mm 1 mps 706 mmHg 89%
    17:00 -2°C° 0.2 mm 1 mps 707 mmHg 91%
    18:00 -3°C° 0.2 mm 1 mps 707 mmHg 92%
    19:00 -3°C° 0.2 mm 1 mps 708 mmHg 93%
    20:00 -4°C° 0.2 mm 1 mps 708 mmHg 93%
    21:00 -4°C° 0.2 mm 1 mps 709 mmHg 94%
    22:00 -6°C° 0.1 mm 1 mps 709 mmHg 94%
    23:00 -6°C° 0.1 mm 1 mps 709 mmHg 94%

    Tomorrow, 18 December, Tuesday

    Time Temperature Precipitation Wind Pressure Humidity
    00:00 -7°C° 0.1 mm 1 mps 709 mmHg 94%
    01:00 -7°C° 0 mm 1 mps 709 mmHg 94%
    02:00 -8°C° 0 mm 1 mps 709 mmHg 94%
    03:00 -9°C° 0 mm 1 mps 709 mmHg 93%
    04:00 -9°C° 0 mm 1 mps 709 mmHg 93%
    05:00 -10°C° 0 mm 1 mps 709 mmHg 93%
    06:00 -10°C° 0 mm 1 mps 709 mmHg 92%
    07:00 -10°C° 0 mm 1 mps 709 mmHg 92%
    08:00 -10°C° 0 mm 1 mps 709 mmHg 91%
    09:00 -10°C° 0 mm 1 mps 709 mmHg 90%
    10:00 -8°C° 0 mm 1 mps 708 mmHg 88%
    11:00 -6°C° 0 mm 1 mps 708 mmHg 85%
    12:00 -3°C° 0 mm 1 mps 707 mmHg 83%
    13:00 -4°C° 0 mm 1 mps 707 mmHg 84%
    14:00 -4°C° 0 mm 1 mps 706 mmHg 86%
    15:00 -5°C° 0 mm 0 mps 706 mmHg 88%
    16:00 -7°C° 0 mm 1 mps 706 mmHg 88%
    17:00 -8°C° 0 mm 1 mps 706 mmHg 88%
    18:00 -10°C° 0 mm 1 mps 706 mmHg 87%
    19:00 -10°C° 0 mm 1 mps 706 mmHg 87%
    20:00 -11°C° 0 mm 1 mps 706 mmHg 86%
    21:00 -11°C° 0 mm 1 mps 706 mmHg 85%
    22:00 -11°C° 0 mm 1 mps 706 mmHg 84%
    23:00 -11°C° 0 mm 1 mps 706 mmHg 83%

    Day after tomorrow, 19 December, Wednesday

    Time Temperature Precipitation Wind Pressure Humidity
    00:00 -12°C° 0 mm 1 mps 705 mmHg 82%
    01:00 -12°C° 0 mm 1 mps 705 mmHg 82%
    02:00 -12°C° 0 mm 1 mps 705 mmHg 81%
    03:00 -12°C° 0 mm 1 mps 704 mmHg 80%
    04:00 -11°C° 0 mm 1 mps 704 mmHg 80%
    05:00 -11°C° 0 mm 1 mps 703 mmHg 80%
    06:00 -11°C° 0 mm 1 mps 703 mmHg 80%
    07:00 -11°C° 0 mm 1 mps 703 mmHg 82%
    08:00 -10°C° 0 mm 1 mps 703 mmHg 83%
    09:00 -10°C° 0 mm 1 mps 703 mmHg 84%
    10:00 -8°C° 0.1 mm 1 mps 703 mmHg 84%
    11:00 -6°C° 0.1 mm 1 mps 702 mmHg 85%
    12:00 -4°C° 0.1 mm 1 mps 702 mmHg 85%
    13:00 -4°C° 0 mm 1 mps 702 mmHg 86%
    14:00 -4°C° 0 mm 1 mps 702 mmHg 87%
    15:00 -4°C° 0 mm 1 mps 701 mmHg 89%
    16:00 -6°C° 0 mm 1 mps 702 mmHg 90%
    17:00 -9°C° 0 mm 2 mps 702 mmHg 90%
    18:00 -10°C° 0 mm 2 mps 702 mmHg 91%
    19:00 -10°C° 0.1 mm 2 mps 702 mmHg 91%
    20:00 -10°C° 0.1 mm 2 mps 702 mmHg 92%
    21:00 -10°C° 0.1 mm 2 mps 703 mmHg 92%
    22:00 -10°C° 0.2 mm 2 mps 703 mmHg 92%
    23:00 -10°C° 0.2 mm 2 mps 703 mmHg 92%

    20 December, Thursday

    Time Temperature Precipitation Wind Pressure Humidity
    00:00 -9°C° 0.2 mm 2 mps 703 mmHg 93%
    01:00 -9°C° 0.3 mm 2 mps 703 mmHg 93%
    02:00 -9°C° 0.3 mm 2 mps 703 mmHg 94%
    03:00 -9°C° 0.3 mm 2 mps 703 mmHg 94%
    04:00 -10°C° 0.2 mm 2 mps 703 mmHg 94%
    05:00 -10°C° 0.2 mm 2 mps 704 mmHg 94%
    06:00 -10°C° 0.2 mm 2 mps 704 mmHg 94%
    07:00 -12°C° 0.1 mm 2 mps 705 mmHg 94%
    08:00 -12°C° 0.1 mm 2 mps 705 mmHg 94%
    09:00 -13°C° 0.1 mm 2 mps 706 mmHg 93%
    10:00 -13°C° 0.1 mm 2 mps 707 mmHg 90%
    11:00 -12°C° 0.1 mm 2 mps 707 mmHg 87%
    12:00 -13°C° 0.1 mm 3 mps 708 mmHg 84%
    13:00 -13°C° 0.1 mm 3 mps 709 mmHg 85%
    14:00 -14°C° 0.1 mm 3 mps 709 mmHg 86%
    15:00 -14°C° 0.1 mm 2 mps 710 mmHg 87%
    16:00 -15°C° 0 mm 2 mps 711 mmHg 90%
    17:00 -17°C° 0 mm 2 mps 712 mmHg 92%
    18:00 -17°C° 0 mm 1 mps 713 mmHg 95%
    19:00 -18°C° 0 mm 1 mps 714 mmHg 94%
    20:00 -19°C° 0 mm 1 mps 715 mmHg 94%
    21:00 -20°C° 0 mm 1 mps 716 mmHg 93%
    22:00 -21°C° 0 mm 1 mps 716 mmHg 92%
    23:00 -22°C° 0 mm 1 mps 716 mmHg 91%

    21 December, Friday

    Time Temperature Precipitation Wind Pressure Humidity
    00:00 -23°C° 0 mm 1 mps 717 mmHg 90%
    01:00 -23°C° 0 mm 1 mps 717 mmHg 89%
    02:00 -23°C° 0 mm 1 mps 717 mmHg 89%
    03:00 -23°C° 0 mm 1 mps 717 mmHg 88%
    04:00 -23°C° 0 mm 1 mps 717 mmHg 88%
    05:00 -23°C° 0 mm 1 mps 717 mmHg 87%
    06:00 -22°C° 0 mm 1 mps 717 mmHg 87%
    07:00 -22°C° 0 mm 1 mps 716 mmHg 84%
    08:00 -22°C° 0 mm 1 mps 716 mmHg 80%
    09:00 -21°C° 0 mm 1 mps 716 mmHg 77%
    10:00 -19°C° 0 mm 1 mps 715 mmHg 75%
    11:00 -16°C° 0 mm 1 mps 714 mmHg 73%
    12:00 -13°C° 0 mm 1 mps 713 mmHg 70%
    13:00 -13°C° 0 mm 1 mps 712 mmHg 73%
    14:00 -13°C° 0 mm 1 mps 712 mmHg 76%
    15:00 -12°C° 0 mm 1 mps 711 mmHg 79%
    16:00 -13°C° 0 mm 1 mps 711 mmHg 76%
    17:00 -15°C° 0 mm 1 mps 712 mmHg 74%
    18:00 -18°C° 0 mm 2 mps 712 mmHg 71%
    19:00 -18°C° 0 mm 2 mps 712 mmHg 70%
    20:00 -18°C° 0 mm 2 mps 711 mmHg 69%
    21:00 -18°C° 0 mm 2 mps 711 mmHg 68%
    22:00 -18°C° 0 mm 2 mps 711 mmHg 67%
    23:00 -19°C° 0 mm 2 mps 710 mmHg 65%

    22 December, Saturday

    Time Temperature Precipitation Wind Pressure Humidity
    00:00 -19°C° 0 mm 2 mps 710 mmHg 64%
    01:00 -18°C° 0 mm 2 mps 710 mmHg 63%
    02:00 -18°C° 0 mm 2 mps 709 mmHg 62%
    03:00 -18°C° 0 mm 2 mps 709 mmHg 62%
    04:00 -18°C° 0 mm 2 mps 708 mmHg 61%
    05:00 -18°C° 0 mm 2 mps 708 mmHg 61%
    06:00 -18°C° 0 mm 2 mps 708 mmHg 60%
    07:00 -17°C° 0 mm 2 mps 707 mmHg 61%
    08:00 -17°C° 0 mm 2 mps 707 mmHg 61%
    09:00 -17°C° 0 mm 2 mps 707 mmHg 62%
    10:00 -12°C° 0 mm 1 mps 706 mmHg 64%
    11:00 -10°C° 0 mm 1 mps 706 mmHg 66%
    12:00 -8°C° 0 mm 1 mps 705 mmHg 68%
    13:00 -8°C° 0 mm 1 mps 705 mmHg 70%
    14:00 -8°C° 0 mm 1 mps 705 mmHg 73%
    15:00 -8°C° 0 mm 1 mps 704 mmHg 76%
    16:00 -9°C° 0 mm 1 mps 705 mmHg 73%
    17:00 -11°C° 0 mm 1 mps 705 mmHg 71%
    18:00 -13°C° 0 mm 1 mps 705 mmHg 69%
    19:00 -13°C° 0 mm 1 mps 705 mmHg 69%
    20:00 -15°C° 0 mm 2 mps 705 mmHg 69%
    21:00 -16°C° 0 mm 2 mps 705 mmHg 69%
    22:00 -16°C° 0 mm 2 mps 705 mmHg 69%
    23:00 -16°C° 0 mm 2 mps 705 mmHg 69%
    Show more